#timestamp,LO_Frequency,Hit,StdDev 
1523732415.1,286047001.0,N
1523732416.0,286047001.0,N
1523732435.8,286047000.9,N
1523732455.7,286047000.9,N
1523732475.5,286047000.9,N
1523732495.3,286047001.0,N
1523732515.2,286047000.9,N
1523732535.0,286047000.5,N
1523732535.9,286047000.5,N
1523732555.7,286047000.5,N
1523732575.6,286047000.6,N
1523732595.4,286047000.6,N
1523732615.3,286047001.1,N
1523732635.1,286047000.6,N
1523732636.0,286047000.6,N
1523732655.8,286047000.5,N
1523732675.7,286047000.4,N
1523732695.5,286047000.8,N
1523732715.3,286047000.4,N
1523732735.2,286047000.7,N
1523732755.0,286047000.8,N
1523732755.9,286047000.8,N
1523732775.8,286047000.7,N
1523732795.6,286047000.4,N
1523732815.4,286047000.7,N
1523732835.3,286047001.0,N
1523732855.1,286047000.0,N
1523732875.9,286046999.9,N
1523732895.7,286047000.0,N
1523732915.5,286047000.5,N
1523732935.4,286046999.7,N
1523732955.2,286047000.2,N
1523732975.0,286047002.8,Y
1523732976.0,286047002.8,P
1523732995.8,286047002.8,N
1523733015.6,286047000.0,N
1523733035.5,286047000.3,N
1523733055.3,286046999.7,N
1523733075.1,286046999.8,N
1523733095.9,286047002.3,N
1523733115.7,286046999.7,N
1523733135.6,286047002.7,N
1523733155.4,286047002.4,N
1523733175.2,286047001.6,N
1523733195.1,286047001.7,N
1523733196.0,286047001.7,N
1523733215.8,286047001.3,N
1523733235.6,286047001.6,N
1523733255.5,286047001.3,N
1523733275.3,286047004.0,Y
1523733295.2,286047000.0,P
1523733315.9,286047002.1,P
1523733335.7,286047002.7,P
1523733355.6,286047002.7,N
1523733375.4,286047002.4,N
1523733395.2,286047002.4,N
1523733415.1,286047002.6,N
1523733416.0,286047002.6,N
1523733435.8,286047002.6,Y
1523733455.7,286047001.2,P
1523733475.5,286046998.4,P
1523733495.3,286046998.2,N
1523733515.2,286046998.1,N
1523733535.0,286046998.1,N
1523733535.9,286046998.1,N
1523733555.7,286046998.3,N
1523733575.6,286046998.6,N
1523733595.4,286046998.5,N
1523733615.3,286046998.1,N
1523733635.1,286047000.6,N
1523733636.0,286047000.6,N
1523733655.8,286047000.6,N
1523733675.7,286047001.0,N
1523733695.5,286047001.0,N
1523733715.3,286047000.6,N
1523733735.2,286047000.5,N
1523733755.0,286047000.4,N
1523733755.9,286047000.4,N
1523733775.8,286047000.4,N
1523733795.6,286047000.0,N
1523733815.4,286047002.8,N
1523733835.3,286047000.0,N
1523733855.1,286046999.9,N
1523733875.8,286047000.2,N
1523733895.7,286047000.1,N
1523733915.5,286047000.1,N
1523733935.4,286047002.8,N
1523733955.2,286047002.6,N
1523733975.0,286047002.6,N
1523733975.9,286047002.6,N
1523733995.8,286047002.1,N
1523734015.6,286047002.4,N
1523734035.4,286047002.3,N
1523734055.3,286047002.6,N
1523734075.1,286047001.9,N
1523734095.9,286047002.6,N
1523734115.7,286047002.5,N
1523734135.5,286047002.6,N
1523734155.4,286047001.9,N
1523734175.2,286047002.3,N
1523734195.0,286047002.2,N
1523734196.0,286047002.2,N
1523734215.8,286047002.0,N
1523734235.6,286047001.6,N
1523734255.5,286047001.9,N
1523734275.3,286047001.5,N
1523734295.1,286047001.8,N
1523734315.9,286047001.5,N
1523734335.7,286047001.8,N
1523734355.5,286047001.8,N
1523734375.4,286047004.0,Y
1523734395.2,286047000.4,P
1523734415.1,286046999.8,N
1523734416.0,286046999.8,N
1523734435.8,286047000.0,N
1523734455.6,286047000.3,N
1523734475.5,286047000.0,N
1523734495.3,286047000.1,N
1523734515.2,286046999.8,N
1523734535.9,286046999.7,N
1523734555.7,286047000.1,N
1523734575.6,286046999.8,N
1523734595.4,286047002.8,Y
1523734615.2,286047002.7,P
1523734635.1,286046999.7,N
1523734636.0,286046999.7,N
1523734655.8,286046999.9,N
1523734675.7,286047000.6,N
1523734695.5,286046999.8,N
1523734715.3,286046999.7,N
1523734735.2,286047000.2,N
1523734755.0,286047000.1,N
1523734755.9,286047000.1,N
1523734775.7,286047002.5,Y
1523734795.6,286047002.6,P
1523734815.4,286046999.7,N
1523734835.3,286047002.8,N
1523734855.1,286047002.8,N
1523734875.8,286047002.5,N
1523734895.7,286047002.5,N
1523734915.5,286047002.4,N
1523734935.4,286047002.6,N
1523734955.2,286047002.4,N
1523734975.0,286047002.4,N
1523734975.9,286047002.4,N
1523734995.8,286047002.7,N
1523735015.6,286047002.5,N
1523735035.5,286047002.4,N
1523735055.3,286047002.3,N
1523735075.1,286047001.8,N
1523735095.9,286047001.9,N
1523735115.7,286047004.4,Y
1523735135.5,286047001.2,P
1523735155.4,286047001.1,N
1523735205.3,286047000.4,E
1523735215.2,286047001.1,N
1523735235.0,286047001.2,P
1523735235.9,286047001.2,P
1523735255.8,286047001.2,Y
1523735275.6,286046998.8,P
1523735295.4,286046999.2,N
1523735315.3,286046998.7,N
1523735335.1,286046998.9,N
1523735355.9,286046998.7,N
1523735375.7,286046998.3,N
1523735395.5,286046998.6,N
1523735415.4,286046998.3,N
1523735435.2,286046998.2,N
1523735455.0,286046998.7,N
1523735455.9,286046998.7,N
1523735475.8,286046998.6,N
1523735495.6,286047000.7,N
1523735515.5,286047001.0,N
1523735535.3,286046998.1,N
1523735555.1,286047000.6,N
1523735575.9,286047000.3,N
1523735595.7,286047000.2,N
1523735615.5,286047002.3,N
1523735635.4,286046999.7,N
1523735655.2,286046999.7,N
1523735675.1,286047002.3,N
1523735676.0,286047002.3,N
1523735695.8,286047001.5,N
1523735715.6,286047002.2,N
1523735735.5,286047001.8,N
1523735755.3,286047001.4,N
1523735775.1,286047001.6,N
1523735795.9,286047001.6,N
1523735815.7,286047001.5,N
1523735835.6,286047001.8,N
1523735855.4,286047001.5,N
1523735875.2,286047001.7,N
1523735895.1,286047001.8,N
1523735896.0,286047001.8,N
1523735915.8,286047001.5,N
1523735935.6,286047001.7,N
1523735955.5,286047001.7,N
1523735975.3,286047001.4,N
1523735995.2,286047001.4,N
